www.pogodaiklimat.ru

Погода и климат >> Архив погоды >> Таиланд >> Бангна Агромет


ПОГОДА в Бангна Агромете

  • Прогноз погоды в Бангна Агромете
  • Монитор погоды в Бангна Агромете

АРХИВ ПОГОДЫ в Бангна Агромете

Время (UTC), дата Ветер
(напр.,м/с)
 
Видим.   Явления Облачность Т
(С)
Тd
(С)
f
(%)
Тe
(С)
Тes
(С)
Комфортность P
(гПа)
Po
(гПа)
Тmin
(С)
Tmax
(С)
R
(мм)
R24
(мм)
S
(см)
00 16.04 Ю 3 10 км 9/3 600 м
[Cu med, cong Cs]
+29.8 +27.7 89 +49 +49 опасность
перегрева
1009.4 1009.1 +29.1
03 16.04 ЮЗ 7 10 км 8/6 600 м
[Cu med, cong Cs]
+33.5 +27.2 70 +52 +54 опасность
перегрева
1011.3 1011.0
06 16.04 Ю 8 10 км 9/4 600 м
[Cu med, cong Cs]
+35.0 +27.0 63 +53 +55 опасность
перегрева
1009.5 1009.2
09 16.04 Ю 6 10 км 6/1 600 м
[Cu med, cong Cs]
+35.4 +26.6 61 +53 +55 опасность
перегрева
1006.4 1006.1
12 16.04 Ю 4 10 км 4/1 600 м
[Cu med, cong Ac lent Cs]
+31.4 +27.3 79 +50 +50 опасность
перегрева
1008.0 1007.7 +35.9
15 16.04 Ю 4 10 км 3/1 600 м
[Cu med, cong Cs]
+30.6 +27.8 85 +50 +50 опасность
перегрева
1009.9 1009.6
18 16.04 ЮЗ 3 10 км 3/1 600 м
[Cu hum Cs]
+30.0 +27.8 88 +49 +49 опасность
перегрева
1009.2 1008.9
21 16.04 Ю 4 10 км 3/1 600 м
[Cu med, cong Cs]
+29.7 +27.5 88 +48 +48 опасность
перегрева
1008.1 1007.8
00 17.04 Ю 2 10 км 4/3 600 м
[Cu med, cong Cs]
+29.9 +27.7 88 +49 +50 опасность
перегрева
1009.7 1009.4 +29.5
03 17.04 Ю 6 10 км 8/5 600 м
[Cu med, cong Cs]
+33.5 +27.5 71 +53 +56 опасность
перегрева
1011.4 1011.1
06 17.04 Ю 5 10 км 6/3 600 м
[Cu med, cong Cs]
+36.3 +27.7 61 +56 +63 опасность
перегрева
1009.9 1009.6
09 17.04 ЮЗ 7 10 км 4/0
[Cs]
+36.5 +23.2 46 +46 +48 опасность
перегрева
1006.2 1005.9
12 17.04 Ю 6 10 км 5/0
[Ac lent Cs]
+32.2 +26.1 70 +48 +48 опасность
перегрева
1007.0 1006.7 +37.0
15 17.04 Ю 4 10 км 5/3 600 м
[Cu med, cong Cs]
+30.9 +28.2 86 +52 +52 опасность
перегрева
1009.5 1009.2
18 17.04 Ю 6 10 км 6/3 600 м
[Cu med, cong Cs]
+30.4 +28.2 88 +51 +51 опасность
перегрева
1008.4 1008.1
21 17.04 штиль 0 10 км 8/6 600 м
[Cu med, cong Cs]
+30.2 +27.9 88 +50 +50 опасность
перегрева
1007.4 1007.1
00 18.04 Ю 4 10 км 8/3 600 м
[Cu med, cong Ac trans Cs]
+30.4 +28.5 90 +52 +52 опасность
перегрева
1008.9 1008.6 +29.8
03 18.04 ЮЗ 5 10 км 8/6 600 м
[Cu med, cong Cs]
+34.2 +28.5 72 +56 +59 опасность
перегрева
1010.3 1010.0
06 18.04 ЮЗ 6 10 км 8/6 600 м
[Cu med, cong Cs]
+35.5 +28.8 68 +58 +61 опасность
перегрева
1008.6 1008.3
09 18.04 Ю 9 10 км 6/3 600 м
[Cu med, cong Cs]
+35.5 +27.4 63 +54 +55 опасность
перегрева
1005.7 1005.4
12 18.04 Ю 6 10 км 8/3 600 м
[Cu med, cong Ac lent Cs]
+31.6 +28.3 83 +53 +53 опасность
перегрева
1006.9 1006.6 +36.0
15 18.04 Ю 5 10 км 5/0
[Cs]
+31.0 +27.4 81 +49 +49 опасность
перегрева
1008.8 1008.5
18 18.04 Ю 3 10 км 8/6 600 м
[Cu med, cong Cs]
+30.6 +28.4 88 +52 +52 опасность
перегрева
1007.7 1007.4
21 18.04 Ю 4 10 км 6/1 600 м
[Cu med, cong Cs]
+30.3 +27.7 86 +49 +49 опасность
перегрева
1006.3 1006.0
00 19.04 Ю 8 10 км 8/3 600 м
[Cu hum Cs]
+30.2 +27.9 88 +50 +50 опасность
перегрева
1007.2 1006.9 +29.7
03 19.04 ЮЗ 6 10 км 5/3 600 м
[Cu med, cong Cs]
+33.5 +27.3 70 +52 +56 опасность
перегрева
1009.3 1009.0
06 19.04 Ю 5 10 км 3/1 600 м
[Cu med, cong Cs]
+36.1 +26.3 57 +52 +62 опасность
перегрева
1007.2 1006.9
09 19.04 ЮЗ 6 10 км 6/3 600 м
[Cu med, cong Cs]
+35.1 +26.4 61 +52 +54 опасность
перегрева
1004.4 1004.1
12 19.04 Ю 6 10 км 4/1 600 м
[Cu med, cong Cs]
+32.0 +28.2 80 +53 +53 опасность
перегрева
1005.4 1005.1 +36.6
15 19.04 Ю 3 10 км 3/1 600 м
[Cu hum Cs]
+31.1 +28.4 86 +53 +53 опасность
перегрева
1007.4 1007.1
18 19.04 Ю 3 10 км 4/3 600 м
[Cu med, cong Cs]
+30.7 +28.7 89 +53 +53 опасность
перегрева
1006.2 1005.9
21 19.04 ЮЗ 4 10 км 3/1 600 м
[Cu med, cong Cs]
+30.2 +28.7 92 +52 +52 опасность
перегрева
1005.1 1004.8
00 20.04 Ю 2 10 км 4/1 600 м
[Cu hum Cs]
+30.0 +28.6 92 +51 +52 опасность
перегрева
1005.9 1005.6 +29.7
03 20.04 З 4 10 км 3/0
[Cs]
+35.5 +23.2 49 +46 +55 опасность
перегрева
1007.5 1007.2
06 20.04 ЮЗ 6 10 км 3/0
[Cs]
+39.0 +24.6 44 +51 +59 опасность
перегрева
1005.1 1004.8
09 20.04 Ю 6 10 км 4/1 600 м
[Cu med, cong Cs]
+37.0 +23.8 47 +48 +51 опасность
перегрева
1002.4 1002.1
12 20.04 Ю 5 10 км 8/0
[Cs]
+32.7 +27.0 72 +51 +51 опасность
перегрева
1003.1 1002.8 +39.5
15 20.04 Ю 6 10 км 3/0
[Cs]
+31.2 +27.3 80 +50 +50 опасность
перегрева
1005.1 1004.8
18 20.04 ЮЗ 3 10 км 3/0
[Cs]
+30.6 +27.7 85 +50 +50 опасность
перегрева
1004.4 1004.1
21 20.04 Ю 6 10 км 4/1 600 м
[Cu hum Cs]
+30.2 +27.9 88 +50 +50 опасность
перегрева
1003.6 1003.3
00 21.04 ЮЗ 6 10 км 8/4 600 м
[Cu med, cong Cs]
+30.6 +28.4 88 +52 +52 опасность
перегрева
1005.8 1005.5 +30.0
03 21.04 Ю 6 10 км 8/6 600 м
[Cu med, cong Cs]
+35.0 +28.5 69 +57 +59 опасность
перегрева
1007.5 1007.2
06 21.04 Ю 7 10 км 5/3 600 м
[Cu med, cong Cs]
+37.0 +26.5 55 +53 +57 опасность
перегрева
1005.5 1005.2
09 21.04 ЮЗ 8 10 км 5/1 600 м
[Cu med, cong Cs]
+36.4 +25.8 55 +52 +53 опасность
перегрева
1002.9 1002.6
12 21.04 Ю 3 10 км 6/1 600 м
[Cu med, cong Cs]
+32.9 +25.3 64 +47 +47 опасность
перегрева
1003.5 1003.2 +37.4
15 21.04 Ю 4 10 км 4/1 600 м
[Cu hum Cs]
+32.2 +26.9 74 +50 +50 опасность
перегрева
1005.7 1005.4
18 21.04 Ю 5 10 км 4/1 600 м
[Cu hum Cs]
+31.0 +27.7 83 +51 +51 опасность
перегрева
1004.7 1004.4
21 21.04 Ю 6 10 км 6/4 600 м
[Cu med, cong Cs]
+30.6 +27.7 85 +50 +50 опасность
перегрева
1004.3 1004.0
00 22.04 Ю 6 10 км 6/4 600 м
[Cu med, cong Cs]
+30.8 +27.3 82 +49 +50 опасность
перегрева
1006.2 1005.9 +30.3
03 22.04 ЮЗ 6 10 км 6/4 600 м
[Cu med, cong Cs]
+34.0 +26.8 66 +51 +55 опасность
перегрева
1007.7 1007.5
06 22.04 ЮЗ 7 10 км 6/3 600 м
[Cu med, cong Cs]
+36.7 +26.8 57 +54 +58 опасность
перегрева
1006.4 1006.1
09 22.04 Ю 8 10 км 8/3 600 м
[Cu med, cong Ac lent Cs]
+34.8 +26.5 62 +51 +52 опасность
перегрева
1004.0 1003.7
12 22.04 Ю 7 10 км 8/1 600 м
[Cu hum Ac lent Cs]
+31.5 +27.9 81 +51 +51 опасность
перегрева
1005.2 1004.9 +37.0
15 22.04 Ю 6 10 км 6/3 600 м
[Cu med, cong Cs]
+31.0 +27.6 82 +50 +50 опасность
перегрева
1008.6 1008.3
18 22.04 СЗ 6 5000 м гроза, ливневой дождь 10/5 300 м
[Cb cap Ac As Cs]
+25.9 +25.3 96 +37 +37 очень
душно
1008.5 1008.2 23
21 22.04 СЗ 3 7000 м гроза без осадков 10/3 300 м
[Cb cap Ac As Cs]
+26.8 +25.7 94 +40 +40 очень
душно
1008.3 1008.0 1

 

Местоположение метеостанции Бангна Агромет (Таиланд): широта 13.67 долгота 100.62 высота над уровнем моря 6 м.

В архиве по умолчанию представлена погода в Бангна Агромете за последнюю неделю. Архивные данные за месяц целиком и за предыдущие месяцы, начиная с января 2011 года, Вы можете получить, выбрав интересующий диапазон дат из раскрывающегося списка и нажав кнопку "Ввод!".


*Определитесь, кто Вы:
робот инопланетянин человек

Внимание! Время в таблицах - всемирное. Для получения местного времени необходимо прибавить поправку, которая равна 7 ч.

Смотрите также архив погоды в соседних городах и на ближайших метеорологических станциях:

Погода в Бангкоке 2 (Таиланд) (6 км)
Погода в Бангкоке (Таиланд) (9 км)
Погода в Аэропорту Суварнабхуми (Таиланд) (15 км)
Погода в Самутрудкан Агромете (Таиланд) (22 км)
Погода в Дон Муанг (Таиланд) (28 км)
Погода в Бангкок Пилот (Таиланд) (32 км)
Погода в Патхумтхани (Таиланд) (48 км)
Погода в Чонбури (Таиланд) (51 км)
Погода в Ратбури (Таиланд) (51 км)
Погода на Ко Сичан (Таиланд) (59 км)

Пояснения к столбцам:

Ветер - указаны скорость ветра в м/с - средняя за 10 мин, порывы в срок и между сроками (в фигурных скобках) и направление, откуда дует ветер: С - северный, СВ - северо-восточный, В - восточный, ЮВ - юго-восточный, Ю - южный, ЮЗ - юго-западный, З - западный, СЗ - северо-западный.
Видимость - горизонтальная дальность видимости в метрах или километрах. При видимости от 1 до 10 км при отсутствии осадков обычно наблюдается дымка, при ухудшении видимости до 1 км и менее - туман. В сухую погоду видимость может ухудшаться дымом, пылью или мглою.
Явления - указаны атмосферные явления, наблюдавшиеся в срок или в последний час перед сроком; фигурными скобками обозначены явления, наблюдавшиеся между сроками (за 1-3 часа до срока); квадратными скобками обозначены град или гололедные отложения с указанием их диаметра в мм.
Облачность - указаны через наклонную черту общая и нижняя облачность в баллах и высота нижней границы облаков в метрах; квадратными скобками обозначены формы облаков: Ci - перистые, Cs - перисто-слоистые, Cc - перисто-кучевые, Ac - высококучевые, As - высокослоистые, Sc - слоисто-кучевые, Ns - слоисто-дождевые, Cu - кучевые, Cb - кучево-дождевые. Подробнее классификацию облаков см. в Атласе облаков (PDF).
T - Температура воздуха - температура, измеренная на высоте 2 м над землей.
Td - Температура точки росы - температура, при понижении до которой содержащийся в воздухе водяной пар достигнет насыщения.
f - Относительная влажность воздуха - влажноcть воздуха, измеренная на высоте 2 м над землей.
Te - Эффективная температура - температура, которую ощущает одетый по сезону человек в тени. Характеристика душности погоды. При расчете учитывается влияние влажности воздуха и скорости ветра на теплоощущения человека.
Tes - Эффективная температура на солнце - температура, которую ощущает человек, с поправкой на солнечный нагрев. Характеристика знойности погоды. Зависит от высоты солнца над горизонтом, облачности и скорости ветра. Ночью, в пасмурную погоду, а также при ветре 12 м/с и более поправка равна нулю.
P - Атмосферное давление - приведенное к уровню моря атмосферное давление.
Po - Атмосферное давление - измеренное на уровне метеостанции атмосферное давление.
Tmin - Минимальная температура - минимум температуры воздуха на высоте 2 м над землей.
Tmax - Максимальная температура - максимум температуры воздуха на высоте 2 м над землей.
R - Количество осадков - Количество выпавших осадков за период времени, мм. При наведении курсора мыши на число - период времени, за который выпало указанное количество осадков.
R24 - Количество осадков - Количество выпавших осадков за 24 часа, мм.
S - Снежный покров - Высота снежного покрова, см. При наведении курсора мыши на число - состояние снежного покрова и степень покрытия местности в баллах.